Temperature
17 18 19 18 17 16 15 14 14 13 12 10 10 10 10 10 10 10 10 10 10 10 10 10 10 11 11 11 11 12 12 13 14 14 14 14 14 13 13 12 12 12 11 11
18 19 18 17 15 14 13 13 13 12 11 10 10 10 10 9 9 9 9 9 9 9 9 9 10 10 10 10 10 10 11 11 12 13 13 14 13 13 13 12 12 11 11 11
16 17 18 15 13 13 12 11 11 11 10 10 10 9 9 8 8 8 9 9 9 9 9 9 9 9 9 9 10 10 10 10 11 11 12 12 12 13 12 12 12 11 11 11
14 17 17 12 12 12 11 10 10 10 10 9 9 8 9 9 9 9 9 9 9 9 9 9 9 9 9 9 9 9 9 9 10 10 10 11 11 12 12 12 12 11 11 11
13 15 14 13 12 12 11 11 10 9 9 9 9 8 9 10 10 9 9 9 9 9 9 9 9 9 9 9 9 9 9 9 9 9 9 10 10 11 11 11 11 11 11 11
14 16 15 11 12 11 11 11 9 9 9 9 8 6 7 9 9 9 9 9 9 9 9 9 9 9 9 9 9 9 9 9 9 8 8 9 9 10 10 11 11 11 11 11
13 14 12 10 10 11 11 10 10 10 9 8 7 7 8 8 8 9 9 9 9 9 9 9 9 9 8 9 9 9 9 8 8 8 8 8 9 9 9 10 11 11 11 11
12 13 11 10 10 10 10 11 10 9 9 8 8 8 8 8 8 8 8 8 8 8 8 8 8 8 8 8 8 9 8 8 8 8 8 7 8 8 9 9 10 11 11 11
10 10 10 10 10 11 10 10 9 9 9 8 8 7 8 8 8 8 8 8 8 7 7 7 7 7 7 7 8 8 8 8 8 8 7 7 7 8 8 9 10 10 11 11
9 9 10 11 11 11 10 9 9 9 8 8 8 7 7 7 7 7 7 7 7 7 7 7 7 6 6 7 7 7 7 8 8 7 7 7 7 7 7 8 9 10 10 11
9 9 10 11 11 10 9 9 9 9 8 8 8 7 7 7 7 7 7 6 6 6 6 6 6 6 6 6 6 6 7 7 7 7 7 7 7 7 7 8 9 10 11 11
8 10 9 9 10 9 9 8 8 8 8 8 7 7 7 6 6 6 6 6 5 5 5 5 5 5 5 5 5 5 6 6 7 7 7 6 6 7 7 8 9 10 11 12
10 10 9 9 9 9 8 8 8 8 7 7 7 6 6 6 6 5 5 5 5 4 4 4 4 4 4 4 4 5 5 6 6 6 6 6 6 6 6 7 9 9 10 11
10 9 9 9 9 8 8 8 8 7 7 7 6 6 5 5 5 5 4 4 4 4 4 4 4 4 4 4 4 4 4 5 5 6 6 6 6 6 6 7 8 9 9 10
10 9 9 8 8 8 8 7 7 6 6 6 5 5 5 4 4 4 4 4 4 4 4 3 3 3 4 3 3 3 4 5 5 6 6 6 6 6 6 7 8 9 9 9
9 9 8 8 8 8 7 7 6 6 5 5 5 4 4 4 4 3 3 4 4 4 3 3 3 3 3 3 3 3 4 4 5 5 6 6 6 6 6 7 8 9 9 9
8 8 8 7 7 7 6 6 6 5 5 4 4 4 3 3 3 3 3 4 4 4 4 4 3 3 3 3 3 3 3 4 5 5 6 6 6 6 7 7 8 9 9 10
8 8 8 7 7 6 6 5 5 4 4 4 3 3 3 3 3 3 4 4 4 4 4 3 3 3 3 3 3 3 4 4 5 5 6 6 6 6 7 8 8 9 9 10
8 8 7 7 6 6 5 5 4 4 4 3 3 3 3 3 3 3 4 4 4 4 4 3 3 3 3 3 3 4 4 5 5 6 6 6 6 7 7 8 9 9 10 10
8 7 7 6 6 5 5 4 3 3 4 4 3 3 3 3 3 4 4 4 4 4 4 4 3 3 3 4 4 4 5 5 5 6 6 6 6 7 8 8 9 9 10 10
7 7 6 6 5 5 4 4 3 3 4 4 3 3 3 3 3 4 4 4 5 4 4 4 4 4 4 4 4 5 5 5 6 6 6 6 7 8 8 9 9 10 10 11
7 6 5 5 4 4 4 4 4 4 4 4 3 3 3 3 4 4 4 5 5 5 5 5 4 4 4 5 5 5 5 6 6 6 7 7 7 8 9 9 10 10 11 11
6 5 5 4 4 4 5 5 5 5 4 3 3 3 3 4 4 4 5 5 5 5 5 5 5 5 5 5 6 6 6 6 6 7 7 8 8 9 9 10 11 11 11 11
5 5 5 4 4 4 4 5 5 5 4 3 3 3 3 4 4 5 5 5 5 5 6 6 6 6 6 6 6 6 7 7 7 7 8 8 9 9 10 11 11 11 12 12
5 5 5 4 4 3 4 4 5 4 3 3 3 4 4 4 4 5 5 6 6 6 6 6 6 6 7 7 7 7 7 7 8 8 9 9 10 10 11 11 12 12 12 12
5 4 4 4 4 4 4 4 3 3 2 3 3 3 4 4 4 5 6 6 6 7 7 7 7 7 7 7 7 7 8 8 8 9 9 10 11 11 11 12 12 12 12 12
4 4 4 4 4 4 4 4 4 3 3 3 3 3 4 4 4 5 6 6 6 7 7 7 7 7 7 7 8 8 8 9 9 10 10 11 11 11 11 12 12 12 12 12
Wind_Speed
7 5 1 1 5 6 2 1 4 0 4 4 7 9 10 10 10 11 12 13 13 13 12 12 12 11 11 12 12 12 13 13 13 13 11 10 9 8 7 5 4 2 2 3
4 1 2 4 8 6 6 5 4 4 2 3 7 8 10 12 12 12 13 14 14 14 14 14 14 14 13 12 12 12 12 13 13 13 11 10 10 9 7 6 4 2 1 1
4 4 2 4 7 4 3 3 3 2 3 8 10 13 14 15 14 12 12 13 14 14 14 14 14 14 13 13 12 12 12 12 12 13 11 10 9 9 9 8 6 5 4 2
2 3 1 2 4 5 3 2 2 2 7 9 11 12 13 14 12 11 11 13 14 15 14 14 15 14 13 13 12 12 12 11 11 12 12 10 8 10 10 8 8 7 6 5
2 1 3 3 3 5 4 3 2 5 10 11 10 9 8 9 8 10 12 14 15 15 15 15 16 15 13 13 13 12 12 11 11 10 12 10 9 10 10 9 9 8 7 8
3 2 1 1 7 9 5 4 4 6 11 12 10 10 9 10 12 15 17 16 15 15 14 15 16 13 12 14 14 14 13 12 10 10 10 11 10 10 9 9 10 10 9 9
3 1 2 3 9 7 2 6 8 9 11 12 10 12 14 15 17 19 19 19 18 16 15 14 15 12 13 14 15 16 13 12 11 10 9 10 9 9 10 11 11 11 11 9
3 3 2 4 5 2 6 8 9 11 12 14 16 18 19 17 17 17 18 18 18 16 16 14 13 13 15 16 17 14 12 12 12 10 10 10 9 10 9 12 13 12 11 9
2 1 4 4 6 8 8 10 12 10 15 16 18 20 19 19 18 18 19 19 16 16 17 14 13 13 16 17 16 14 13 13 12 11 9 8 8 10 9 10 12 12 12 11
1 3 5 7 8 8 9 11 12 14 17 17 19 21 21 20 19 17 18 18 17 16 17 16 14 14 15 16 14 13 14 13 11 10 10 9 7 7 7 8 12 13 13 13
2 5 9 8 8 10 12 13 15 17 17 17 20 22 22 21 19 19 18 16 15 16 17 18 15 15 15 14 13 13 13 13 11 10 9 9 8 7 8 9 12 14 15 15
4 7 6 11 11 13 14 14 17 19 18 17 18 22 23 21 19 18 18 17 17 18 18 18 17 16 15 14 13 12 12 11 9 8 8 7 8 9 11 13 15 18 17 17
7 8 8 12 12 11 12 16 19 19 20 22 19 19 21 20 18 18 19 20 20 20 20 19 17 16 15 14 12 12 12 11 9 8 8 8 7 7 9 8 10 15 18 19
9 8 9 10 12 16 17 19 19 17 18 19 19 20 20 21 20 21 23 23 22 21 20 19 18 17 14 12 12 12 11 12 11 9 8 8 7 7 8 7 6 8 11 16
10 9 11 14 13 15 16 17 19 19 18 19 18 20 21 23 24 25 24 24 23 22 21 19 18 16 12 11 11 11 10 8 8 8 8 8 7 7 8 8 8 10 9 10
10 12 13 14 16 18 18 19 19 19 19 20 21 21 22 24 25 25 24 23 22 22 20 18 17 15 11 10 10 9 9 13 12 8 8 8 7 8 8 7 8 11 14 13
8 10 12 16 17 18 17 17 18 19 20 22 24 24 25 25 25 25 24 22 21 20 18 17 16 14 11 9 9 8 7 9 12 9 8 8 7 8 8 7 9 11 13 15
10 11 14 16 18 20 20 19 19 21 21 23 24 24 25 25 25 25 25 23 20 17 15 13 12 10 9 8 7 7 7 7 7 7 7 7 7 7 7 8 10 13 12 13
13 13 15 16 17 17 18 19 20 20 21 21 23 24 24 24 24 24 23 21 19 16 12 10 10 8 7 7 7 5 6 7 7 7 7 8 8 7 7 8 10 12 13 14
12 14 15 16 16 16 17 18 19 20 21 21 22 23 24 25 25 24 21 17 13 10 10 9 7 6 5 6 6 4 6 7 7 7 6 6 7 6 7 9 10 12 14 14
14 14 15 16 16 16 17 18 18 20 21 21 22 23 24 25 24 21 17 15 12 11 9 8 5 4 4 4 5 4 5 5 6 6 6 6 6 6 8 9 11 12 13 13
11 13 15 15 16 18 17 17 17 19 20 21 23 23 24 24 23 20 16 11 12 12 9 5 4 5 5 5 4 4 5 5 6 5 5 5 5 6 8 10 12 12 12 12
11 11 13 14 16 18 19 17 18 18 20 22 23 23 23 22 18 17 15 12 11 13 9 5 6 7 7 5 4 4 5 5 5 5 5 5 5 7 9 12 11 11 11 11
10 11 12 13 15 14 17 20 20 18 19 20 20 21 21 19 16 14 13 15 15 14 8 7 8 8 7 4 4 4 4 4 4 4 4 4 6 8 10 11 11 10 11 12
10 10 11 14 14 14 15 18 19 18 18 18 20 20 18 15 16 17 16 16 16 13 9 7 8 7 4 3 3 3 3 3 2 2 4 5 7 9 10 10 10 10 10 9
8 10 11 12 12 12 13 14 14 15 16 18 18 18 17 16 17 16 15 16 17 14 9 6 5 3 2 2 2 2 2 1 1 3 5 6 8 9 9 10 11 9 9 9
9 9 9 11 11 11 12 13 14 16 16 17 19 18 18 17 17 18 18 15 14 12 10 7 4 3 2 2 2 2 2 2 4 5 6 6 7 7 8 9 8 8 8 8
Wind_Direction
240 249 192 8 5 25 76 250 224 4 98 8 339 331 327 328 332 346 353 353 351 346 342 339 336 332 332 331 330 330 328 325 313 295 272 250 235 225 223 228 240 268 312 351
292 293 158 77 34 45 44 26 54 91 85 315 313 318 329 330 328 334 340 338 335 332 330 328 325 324 321 319 321 323 324 323 322 313 289 258 236 221 213 212 210 204 222 24
286 314 91 49 11 39 71 45 31 21 320 317 324 328 323 312 307 308 318 319 317 314 310 308 307 306 303 302 308 312 313 317 324 323 309 278 245 220 212 204 195 190 189 167
304 1 287 91 52 69 102 96 51 333 305 305 299 299 292 286 278 280 292 301 301 299 297 295 295 293 290 292 294 298 302 308 316 323 319 304 264 231 216 199 192 189 188 178
65 14 119 115 21 4 321 253 203 305 304 303 301 300 291 289 267 269 284 290 290 287 287 287 287 286 286 287 287 289 291 295 304 314 318 312 291 253 222 201 192 189 186 180
56 333 302 59 323 320 282 253 223 277 296 304 318 311 295 282 285 292 296 296 292 290 287 283 283 280 278 280 281 280 280 283 288 295 306 306 299 278 235 208 196 186 185 185
39 325 74 298 309 332 354 293 296 296 293 295 286 276 282 286 288 289 291 291 292 291 289 284 284 281 277 277 274 272 273 276 279 282 289 295 300 291 244 214 193 183 182 183
14 9 348 315 353 15 269 281 293 294 290 289 288 288 290 291 288 287 288 288 287 286 284 283 282 280 280 278 274 273 273 274 275 276 285 300 305 302 263 216 193 183 177 175
78 158 248 251 246 258 271 281 284 283 286 291 292 293 293 292 290 289 286 285 282 278 278 276 272 269 273 275 275 274 274 272 272 274 274 278 292 301 280 223 195 184 181 181
87 261 269 273 270 273 277 276 282 286 290 292 292 293 293 292 290 287 284 282 280 277 278 278 272 269 268 272 273 269 268 268 267 269 274 272 280 289 280 239 199 186 184 183
304 286 300 294 283 286 293 294 294 295 294 292 291 293 293 293 292 290 289 285 281 279 278 276 272 268 268 269 268 267 266 265 264 263 266 271 276 278 275 257 215 191 187 182
260 261 263 278 285 293 296 293 294 297 298 292 289 292 294 294 293 293 292 290 287 282 280 278 273 268 265 262 260 260 265 264 260 258 261 264 275 286 272 255 222 203 189 179
250 267 268 279 288 289 287 289 295 295 296 299 298 296 297 296 297 295 294 293 290 288 285 282 278 272 265 258 254 252 254 258 259 259 258 260 266 277 286 266 211 192 184 177
269 283 290 286 290 294 295 296 297 295 295 296 300 300 300 300 300 298 298 297 294 291 287 284 281 276 266 256 251 252 253 259 260 256 254 254 259 266 274 254 200 182 182 175
284 286 281 288 292 296 299 302 305 305 304 304 303 302 303 303 303 302 300 298 295 291 288 285 282 277 266 255 250 249 252 255 255 255 252 251 255 263 264 246 205 178 164 166
289 294 292 296 300 304 307 307 308 307 308 309 309 308 306 304 303 302 301 300 297 294 291 285 280 275 265 255 249 249 249 257 259 255 252 252 257 262 256 236 200 178 173 166
301 301 303 307 309 308 308 308 308 309 310 311 312 312 311 309 307 306 305 303 299 294 289 284 280 275 264 250 243 246 246 255 263 263 250 246 252 255 248 222 191 178 173 168
290 292 296 301 306 310 311 311 310 310 310 311 313 314 313 312 310 309 309 308 305 300 294 288 282 277 261 248 239 238 243 249 251 253 248 245 251 249 239 204 182 174 165 163
304 300 302 303 304 306 307 309 310 311 311 314 316 315 313 311 310 310 311 311 311 310 305 299 290 283 265 251 250 237 242 247 252 250 243 245 254 248 221 188 177 169 162 163
302 302 304 305 306 307 308 309 311 313 316 318 318 316 316 315 315 315 314 312 309 307 305 304 298 281 266 259 257 239 242 247 250 249 242 247 252 234 196 178 171 165 164 167
304 306 309 311 311 311 310 311 315 317 319 320 319 318 317 316 317 318 317 318 317 318 315 305 299 286 270 262 263 248 248 250 249 247 247 251 244 211 182 173 167 163 165 168
304 309 312 314 315 316 317 316 317 319 321 322 321 320 320 320 321 321 316 316 316 320 319 304 293 278 275 274 266 259 256 255 255 250 245 242 223 189 174 165 161 162 164 167
307 309 312 314 315 315 316 321 325 326 325 323 321 320 321 320 321 323 326 323 323 321 318 300 289 285 284 278 264 260 261 259 253 245 242 235 200 174 163 158 157 158 159 162
311 310 311 311 315 320 324 327 327 326 323 321 320 320 322 324 325 325 321 317 320 320 318 302 294 292 287 270 265 264 264 261 255 244 226 189 163 156 154 153 153 154 156 157
309 310 314 322 327 326 323 323 325 327 327 327 324 326 328 328 328 328 326 326 327 325 322 312 302 299 291 281 277 276 279 271 251 192 158 150 148 147 147 149 150 150 152 157
311 317 317 315 315 317 323 326 327 328 329 328 330 332 333 335 333 334 334 334 334 332 330 325 323 317 313 303 299 302 303 318 102 129 134 137 137 139 142 147 148 151 155 160
313 315 318 325 327 327 327 327 327 327 327 328 330 333 336 338 340 341 341 342 343 345 346 349 353 358 0 357 349 350 14 62 90 103 116 124 131 136 143 147 150 152 155 159
Height
1509 1506 1507 1510 1513 1514 1517 1520 1524 1522 1526 1529 1527 1524 1521 1517 1512 1508 1504 1501 1497 1494 1490 1487 1484 1480 1476 1472 1469 1465 1460 1456 1452 1448 1446 1445 1445 1445 1444 1442 1441 1439 1437 1435
1508 1504 1506 1514 1518 1519 1523 1523 1523 1524 1528 1528 1526 1523 1519 1515 1511 1507 1503 1500 1496 1492 1489 1485 1482 1477 1473 1469 1465 1461 1456 1451 1446 1442 1439 1438 1438 1439 1438 1438 1437 1437 1436 1434
1518 1511 1508 1524 1527 1526 1527 1528 1528 1528 1531 1526 1523 1520 1517 1512 1508 1505 1502 1498 1495 1491 1487 1483 1479 1474 1470 1465 1461 1457 1452 1447 1442 1437 1433 1431 1431 1432 1433 1433 1433 1433 1433 1433
1522 1515 1524 1536 1530 1529 1530 1531 1530 1529 1528 1525 1522 1518 1513 1509 1505 1502 1499 1495 1491 1486 1482 1478 1474 1470 1465 1461 1457 1452 1448 1443 1438 1433 1429 1426 1425 1425 1426 1428 1428 1429 1430 1430
1527 1526 1529 1532 1531 1531 1531 1529 1530 1528 1525 1521 1518 1514 1509 1506 1503 1500 1495 1490 1485 1480 1475 1471 1467 1463 1459 1454 1451 1446 1442 1437 1433 1428 1424 1421 1419 1418 1419 1421 1423 1424 1426 1428
1527 1526 1529 1538 1533 1530 1531 1528 1528 1526 1523 1519 1515 1513 1506 1502 1499 1493 1488 1483 1478 1473 1468 1463 1459 1455 1450 1446 1443 1439 1435 1431 1427 1423 1419 1415 1412 1411 1412 1414 1417 1419 1422 1424
1531 1530 1536 1540 1533 1529 1535 1533 1526 1523 1520 1516 1513 1508 1500 1495 1490 1486 1481 1476 1471 1465 1460 1455 1451 1446 1441 1437 1434 1431 1428 1424 1420 1417 1413 1409 1406 1403 1403 1405 1409 1413 1417 1420
1535 1535 1540 1537 1534 1536 1534 1527 1523 1519 1516 1510 1505 1499 1493 1487 1482 1477 1472 1467 1462 1457 1451 1447 1443 1438 1432 1427 1424 1422 1419 1416 1413 1410 1406 1402 1399 1396 1394 1395 1400 1405 1410 1415
1538 1541 1538 1535 1533 1531 1528 1524 1519 1515 1510 1504 1498 1491 1485 1479 1473 1468 1462 1457 1451 1446 1440 1435 1432 1428 1422 1418 1415 1412 1409 1407 1405 1402 1399 1396 1392 1389 1386 1387 1390 1397 1403 1408
1538 1537 1535 1532 1529 1527 1524 1520 1515 1510 1504 1498 1491 1483 1476 1470 1464 1457 1451 1446 1440 1434 1428 1423 1420 1417 1412 1408 1406 1402 1399 1397 1396 1394 1391 1388 1385 1381 1379 1379 1382 1388 1395 1401
1539 1536 1532 1528 1527 1523 1519 1514 1508 1503 1497 1491 1484 1475 1468 1460 1453 1447 1440 1434 1429 1423 1416 1411 1408 1404 1401 1398 1395 1392 1389 1388 1387 1386 1383 1381 1378 1374 1372 1372 1375 1380 1387 1394
1539 1534 1532 1526 1522 1518 1513 1507 1501 1495 1487 1482 1476 1467 1459 1451 1443 1436 1428 1422 1416 1409 1403 1398 1394 1390 1388 1386 1384 1382 1379 1378 1378 1377 1375 1373 1370 1367 1365 1365 1368 1375 1382 1389
1534 1530 1527 1522 1517 1512 1507 1500 1494 1488 1481 1472 1465 1458 1449 1440 1432 1425 1417 1410 1402 1396 1390 1384 1380 1376 1374 1373 1372 1371 1369 1369 1368 1368 1367 1365 1363 1361 1359 1358 1361 1368 1376 1385
1530 1526 1521 1517 1512 1506 1501 1494 1487 1480 1473 1466 1457 1448 1440 1430 1422 1413 1405 1397 1390 1382 1376 1371 1367 1363 1362 1361 1360 1359 1359 1359 1359 1359 1359 1358 1357 1355 1354 1353 1356 1361 1371 1380
1526 1523 1518 1512 1506 1500 1494 1486 1478 1470 1463 1455 1447 1439 1430 1420 1410 1401 1393 1384 1376 1369 1363 1358 1354 1351 1350 1349 1348 1349 1349 1350 1350 1351 1352 1352 1350 1349 1348 1348 1351 1357 1365 1375
1521 1518 1513 1507 1500 1494 1487 1479 1471 1462 1454 1446 1437 1428 1420 1410 1400 1390 1381 1373 1364 1357 1351 1346 1342 1340 1339 1339 1338 1339 1340 1342 1343 1343 1344 1344 1343 1343 1343 1344 1347 1352 1359 1368
1517 1511 1506 1499 1494 1487 1480 1473 1465 1456 1447 1438 1428 1419 1409 1399 1389 1379 1370 1362 1354 1347 1341 1336 1332 1330 1330 1330 1330 1331 1332 1334 1336 1337 1338 1338 1337 1337 1338 1340 1343 1349 1356 1365
1516 1510 1504 1497 1490 1482 1473 1466 1458 1449 1440 1430 1421 1411 1400 1390 1380 1370 1361 1352 1344 1337 1332 1328 1325 1323 1322 1322 1323 1324 1326 1328 1330 1331 1332 1332 1332 1333 1334 1336 1341 1347 1353 1362
1511 1506 1499 1493 1486 1478 1469 1460 1452 1442 1432 1423 1413 1403 1394 1384 1373 1363 1353 1344 1337 1330 1325 1321 1319 1317 1317 1317 1318 1320 1322 1323 1325 1326 1327 1327 1327 1328 1330 1334 1339 1345 1351 1359
1506 1500 1494 1487 1480 1472 1463 1454 1445 1435 1426 1416 1406 1397 1387 1376 1366 1356 1347 1339 1332 1326 1321 1317 1315 1314 1313 1314 1315 1316 1318 1319 1321 1321 1322 1323 1323 1325 1328 1333 1338 1344 1350 1358
1501 1495 1488 1481 1473 1465 1457 1448 1438 1429 1420 1411 1402 1392 1381 1371 1360 1351 1342 1334 1329 1323 1319 1315 1314 1313 1312 1313 1313 1314 1316 1317 1318 1318 1319 1319 1320 1323 1327 1332 1337 1343 1350 1357
1496 1490 1483 1476 1467 1458 1450 1442 1433 1424 1415 1406 1397 1387 1377 1366 1356 1347 1339 1333 1326 1322 1318 1315 1313 1312 1312 1312 1312 1313 1314 1314 1315 1315 1315 1317 1319 1322 1326 1332 1337 1344 1350 1356
1492 1486 1479 1471 1463 1454 1445 1438 1429 1420 1412 1403 1393 1384 1374 1364 1354 1345 1336 1330 1324 1320 1317 1314 1313 1312 1312 1311 1311 1311 1311 1312 1312 1312 1313 1315 1318 1322 1327 1333 1339 1345 1351 1357
1487 1481 1474 1467 1459 1450 1441 1433 1426 1418 1410 1401 1392 1383 1373 1362 1352 1345 1337 1329 1323 1319 1316 1314 1313 1312 1311 1310 1310 1310 1309 1309 1310 1310 1312 1315 1319 1324 1330 1335 1341 1347 1353 1359
1483 1477 1470 1462 1454 1447 1439 1431 1423 1415 1407 1398 1390 1380 1372 1363 1353 1344 1336 1329 1323 1319 1315 1313 1312 1311 1310 1310 1309 1309 1309 1308 1309 1311 1314 1318 1323 1328 1333 1339 1345 1350 1356 1361
1480 1474 1467 1461 1453 1446 1439 1430 1422 1414 1406 1397 1388 1380 1371 1362 1353 1344 1337 1330 1324 1320 1316 1314 1312 1312 1311 1311 1310 1310 1310 1311 1312 1315 1318 1323 1327 1333 1338 1343 1348 1353 1358 1363
1476 1470 1464 1457 1451 1445 1438 1430 1422 1414 1406 1399 1390 1381 1372 1364 1355 1347 1339 1332 1327 1323 1319 1317 1315 1314 1314 1314 1314 1314 1314 1316 1318 1321 1325 1329 1333 1338 1342 1347 1352 1356 1361 1365